Cloud_Cover
100 10 85 100 100 100 100 100 100 49 7 20 45 29 8 16 10 10 9 35 38 60 74 99 100 100 100 100 100 100 100 100 100 100 100 100 100 100 100 100 100 100 100
100 89 95 90 8 3 5 94 32 5 5 4 5 8 10 6 0 1 37 100 76 75 49 100 100 100 100 100 100 100 100 100 100 100 100 100 100 100 100 100 100 100 100
100 100 100 100 96 40 6 28 5 5 1 0 0 10 10 1 2 0 13 35 36 45 41 100 100 100 100 100 100 100 100 100 100 100 100 100 100 100 100 100 100 100 100
100 99 99 100 100 100 65 10 11 5 0 2 0 0 0 0 0 0 0 2 2 10 14 35 100 100 100 100 100 100 100 100 100 100 100 100 100 100 100 100 100 100 100
100 91 98 100 100 100 99 38 5 6 0 0 0 0 0 0 0 0 0 0 0 0 0 0 8 61 100 16 46 97 68 26 87 99 100 100 100 100 100 100 100 100 100
71 6 35 100 100 100 100 100 19 7 0 0 3 3 0 0 0 0 0 6 0 2 5 3 1 5 17 94 100 44 5 5 5 100 100 100 100 100 100 100 100 100 100
99 88 39 100 92 93 88 66 5 5 5 5 46 23 5 6 5 4 2 3 2 5 5 5 5 3 4 5 35 41 5 6 25 97 100 100 100 100 100 98 100 100 94
57 89 100 100 100 100 95 94 33 17 47 29 98 60 5 11 85 68 16 6 5 5 5 5 5 5 4 5 5 5 5 9 16 24 100 100 100 100 100 100 79 30 96
100 100 100 100 100 100 100 100 100 97 100 100 96 100 57 5 7 27 89 100 94 45 90 5 5 5 5 5 5 5 5 4 1 3 0 0 0 1 34 88 49 80 79
100 100 100 100 100 100 100 100 100 100 100 100 100 100 99 21 51 51 63 87 100 100 94 19 5 4 3 5 5 5 5 5 5 5 0 0 0 8 22 44 84 60 98
100 100 100 100 100 100 100 100 100 100 100 100 100 100 100 88 55 36 7 5 80 68 53 5 5 34 12 2 5 4 5 4 4 4 0 0 0 0 1 2 1 0 78
100 100 100 100 100 100 100 100 100 100 100 74 100 100 100 100 92 100 80 61 45 17 76 96 24 8 42 78 4 3 3 3 0 0 4 4 4 5 0 0 0 0 2
100 100 100 100 100 100 100 100 100 100 99 100 100 100 100 100 100 100 99 88 76 100 88 75 5 5 7 5 5 1 0 0 0 5 5 4 0 0 0 0 0 0 5
100 100 100 100 100 100 100 100 100 100 99 100 100 100 100 100 100 100 100 100 100 100 29 16 14 6 5 5 5 5 3 5 5 0 0 0 0 0 0 0 0 5 10
100 100 100 100 100 100 100 100 100 100 100 100 100 100 100 100 100 100 100 100 70 53 86 100 77 53 41 48 6 6 30 3 0 0 0 0 0 5 5 5 8 23 36
100 100 100 100 100 100 100 100 100 100 100 100 100 100 100 100 100 100 100 100 100 100 100 100 100 100 100 74 19 0 0 0 0 0 0 0 0 2 5 8 71 100 100
89 78 64 76 92 100 96 87 22 30 76 100 99 100 100 100 100 100 95 100 100 100 100 98 35 4 0 0 0 0 0 0 0 0 0 0 0 5 5 54 54 90 100
5 5 8 17 18 19 87 97 100 80 41 8 29 52 65 98 100 97 50 7 2 0 0 0 0 0 0 0 0 0 0 0 0 0 0 0 0 3 5 65 100 93 82
4 0 3 4 4 4 3 4 4 5 2 0 0 0 0 0 0 0 0 0 0 0 0 0 0 0 0 0 0 0 0 0 0 0 0 0 4 3 2 5 5 20 40
1 0 1 0 2 4 4 5 5 4 4 0 0 0 0 0 0 0 0 0 0 0 0 0 0 0 0 0 0 0 0 0 3 1 2 5 5 4 5 5 5 5 5
2 5 5 5 5 29 11 31 37 86 4 4 4 1 4 2 5 0 0 0 0 0 0 2 5 5 3 0 0 1 0 0 2 5 5 5 5 5 7 37 16 72 63
5 4 0 0 0 0 0 1 5 5 5 5 5 5 5 4 5 5 4 0 2 3 2 5 5 5 5 16 5 5 5 5 5 5 5 5 5 9 5 5 10 5 20
5 5 4 1 3 4 5 7 59 42 47 5 7 5 5 10 50 5 20 16 23 5 5 7 92 16 23 5 5 1 3 5 62 39 4 4 4 3 5 5 7 10 39
32 28 5 5 5 5 19 5 24 75 11 80 27 5 6 7 10 19 9 71 6 59 76 12 30 21 64 32 5 10 28 2 4 15 97 97 70 98 46 10 6 5 5
63 12 5 5 5 10 80 95 66 98 7 45 5 33 5 5 44 32 90 92 35 71 36 12 20 72 6 5 5 5 5 5 6 7 7 19 16 94 95 99 73 100 80
81 55 34 51 37 58 32 18 57 63 47 98 62 63 39 8 5 5 5 35 80 85 60 61 68 22 5 5 5 9 5 4 0 2 3 5 5 3 2 80 100 100 97